sat.trackr.live / text

‹ back to catalog

STARLINK-11100 [DTC]

NORAD 59713 · 2024-088F

PAYLOAD ACTIVE UNKNOWN

§ Identity

Operator
Country
US
Launch date
2024-05-10
Launch site
AFWTR
Launch vehicle
Mass (kg)
RCS (m²)

Purposes: comms

External: N2YO · Heavens-Above · Gunter

§ Orbital elements

Epoch: 2026-05-25T04:08:17.615040Z

Period
91.74 min
Inclination
53.1593°
Eccentricity
0.0000688
Mean motion
15.69710144 rev/d
Perigee alt
359.3 km
Apogee alt
360.2 km
Semi-major
6,737.9 km
B*
2.1220e-5
RAAN
309.3161°
Arg perigee
91.3658°
Mean anomaly
268.7438°
Rev number
11,828

§ Raw data

STARLINK-11100 [DTC]1 59713U 24088F   26145.17242610  .00001983  00000+0  21220-4 0  99992 59713  53.1593 309.3161 0000688  91.3658 268.7438 15.69710144118286

JSON: /api/v1/satellites/59713 · /tle

For live sub-satellite position, see the globe view (requires WebGL).

§ Visibility from observer

Set your observer location to see the next 7 days of passes ≥ 10°. The values pass through the URL so the page stays shareable.

No JS? Fill the form by hand. The geolocation button needs JavaScript.